Hourly Data Report for July 14, 2021

BORDEN AWOS
ONTARIO
Current Station Operator: DND

44°16'20.000" N
79°54'42.000" W
222.50 m
611B002
71534
YBN

Download Data

Hourly Data (July 2021)
Hourly Data Report for July 14, 2021
TIME
LST
Temp Definition
°C
Dew Point Definition
°C
Rel Hum Definition
%
Precip. Amount Definition
mm

Wind Dir Definition
10's deg

Wind Spd Definition
km/h
Visibility Definition
km
Stn Press Definition
kPa
Hmdx Definition


Wind Chill Definition


Weather Definition


00:00 18.9 18.2 96   21 9 14.5 98.93     Rain
01:00 19.1 18.3 95   20 9 14.5 98.98     LegendNANA
02:00 18.9 18.1 95   24 4 14.5 98.95     LegendNANA
03:00 18.9 17.9 94     0 14.5 98.99     LegendNANA
04:00 17.8 17.2 96     0 14.5 99.02     LegendNANA
05:00 16.8 16.4 98     0 14.5 99.07     LegendNANA
06:00 19.4 18.6 95     0 14.5 99.14     LegendNANA
07:00 21.0 18.9 88     0 14.5 99.18 28   LegendNANA
08:00 21.8 19.0 84   36 6 14.5 99.23 29   LegendNANA
09:00 23.8 18.7 73   26 6 14.5 99.24 30   LegendNANA
10:00 25.3 18.2 65   25 9 14.5 99.24 31   LegendNANA
11:00 26.1 17.8 60   26 9 14.5 99.25 32   LegendNANA
12:00 28.2 18.2 55   25 9 14.5 99.25 34   LegendNANA
13:00 28.8 17.6 51   24 13 14.5 99.27 35   LegendNANA
14:00 28.9 18.0 52   27 11 14.5 99.25 35   LegendNANA
15:00 27.8 17.2 53   29 7 14.5 99.19 33   LegendNANA
16:00 29.3 16.5 46   24 9 14.5 99.15 34   LegendNANA
17:00 29.5 16.2 45   29 13 14.5 99.15 34   LegendNANA
18:00 28.3 16.5 49   28 13 14.5 99.17 33   LegendNANA
19:00 26.5 17.9 59   27 6 14.5 99.22 32   LegendNANA
20:00 22.6 18.0 75   25 6 14.5 99.20 29   LegendNANA
21:00 19.8 17.7 88   16 4 14.5 99.20     LegendNANA
22:00 19.5 17.6 89     0 14.5 99.21     LegendNANA
23:00 18.7 17.3 92   21 6 14.5 99.15     LegendNANA

Notes on Data Quality.

Legend

  • E = Estimated
  • M = Missing
  • NA = Not Available*
  • [empty] = Indicates an unobserved value
Date modified: